English version Home page |
Updated on May 8, 2006 |
|
軌道要素Epoch 2005 Mar. 11.0 TT = JDT 2453440.5 T 2005 Mar. 30.09902 TT MPC q 2.0474450 (2000.0) P Q z +0.0011305 Peri. 243.57736 -0.94639640 -0.01922795 +/-0.0000018 Node 66.17674 +0.06264898 +0.96834387 e 0.9976853 Incl. 159.36176 -0.31687372 +0.24887836 >From 264 observations 2004 June 12-2005 Apr. 5, mean residual 0".64.
|
星図
|
光度変化m1 = 12.7 + 5 logΔ + 5 log r
|
軌道要素はM.P.E.C. 2005-G30に掲載されたものです。
|